GW7959 Weather Reports


Display with metric or nautical units.
time (UTC)temp
F
wind
direction
speed
MPH
gust
MPH
rain 1hr
in
rain 24hr
in
rain mn
in
humidity
%
barometer
mb
20260902050011 88 55 2.0 5.0 0.00 0.00 0.00 76 1015.9
20260902045508 88 104 2.0 6.0 0.00 0.00 0.00 76 1016.0
20260902045008 88 144 2.0 4.0 0.00 0.00 0.00 76 1016.0
20260902044508 88 89 1.0 6.0 0.00 0.00 0.00 75 1016.0
20260902044007 88 157 3.0 6.0 0.00 0.00 0.00 75 1015.9
20260902043507 88 71 2.0 4.0 0.00 0.00 0.00 74 1015.8
20260902043006 88 86 1.0 4.0 0.00 0.00 0.00 74 1016.0
20260902042508 88 135 1.0 4.0 0.00 0.00 0.00 74 1015.8
20260902042007 88 130 2.0 6.0 0.00 0.00 0.00 74 1015.8
20260902041506 88 130 2.0 6.0 0.00 0.00 0.00 74 1015.8
20260902041005 87 130 2.0 4.0 0.00 0.00 0.00 73 1015.7
20260902040505 87 131 2.0 6.0 0.00 0.00 0.00 73 1015.7
20260902040005 87 154 4.0 6.0 0.00 0.00 0.00 73 1015.7
20260902035503 87 132 2.0 4.0 0.00 0.00 0.00 75 1015.5
20260902035003 87 161 2.0 5.0 0.00 0.00 0.00 75 1015.4
20260902034503 87 122 2.0 4.0 0.00 0.00 0.00 76 1015.2
20260902034003 87 121 1.0 4.0 0.00 0.00 0.00 76 1015.2
20260902033502 87 100 1.0 4.0 0.00 0.00 0.00 77 1015.1
20260902033002 88 98 1.0 3.0 0.00 0.00 0.00 77 1015.1
20260902032502 87 94 0.0 4.0 0.00 0.00 0.00 77 1015.1
20260902032001 88 136 2.0 4.0 0.00 0.00 0.00 77 1014.9
20260902031508 88 99 1.0 4.0 0.00 0.00 0.00 76 1014.8
20260902031001 88 146 1.0 4.0 0.00 0.00 0.00 76 1014.7
20260902030505 88 146 2.0 4.0 0.00 0.00 0.00 76 1014.6
20260902030002 88 146 1.0 4.0 0.00 0.00 0.00 76 1014.6
20260902025501 88 145 2.0 4.0 0.00 0.00 0.00 76 1014.5
20260902025001 88 138 1.0 3.0 0.00 0.00 0.00 76 1014.4
20260902024500 88 140 1.0 3.0 0.00 0.00 0.00 76 1014.2
20260902024100 88 153 1.0 5.0 0.00 0.00 0.00 76 1014.1
20260902023559 87 159 1.0 5.0 0.00 0.00 0.00 76 1014.2
20260902023103 87 155 1.0 3.0 0.00 0.00 0.00 75 1014.0
20260902022602 87 155 1.0 5.0 0.00 0.00 0.00 75 1013.9
20260902022101 87 155 3.0 5.0 0.00 0.00 0.00 75 1013.9
20260902021601 88 141 3.0 6.0 0.00 0.00 0.00 75 1013.9
20260902021059 88 86 2.0 4.0 0.00 0.00 0.00 75 1013.7
20260902020600 88 150 2.0 6.0 0.00 0.00 0.00 75 1013.7
20260902015601 88 141 4.0 6.0 0.00 0.00 0.00 75 1013.7
20260902015059 88 98 1.0 6.0 0.00 0.00 0.00 75 1013.7
20260902014559 88 85 2.0 5.0 0.00 0.00 0.00 74 1013.7
20260902014057 88 190 2.0 5.0 0.00 0.00 0.00 74 1013.7
20260902013558 88 192 3.0 7.0 0.00 0.00 0.00 74 1013.6
20260902013158 88 144 2.0 7.0 0.00 0.00 0.00 74 1013.6
20260902012557 88 205 1.0 7.0 0.00 0.00 0.00 74 1013.7
20260902012057 88 142 2.0 7.0 0.00 0.00 0.00 74 1013.5
20260902011558 88 178 4.0 7.0 0.00 0.00 0.00 74 1013.5
20260902011058 88 189 4.0 6.0 0.00 0.00 0.00 74 1013.5
20260902010557 88 161 4.0 7.0 0.00 0.00 0.00 74 1013.6
20260902010100 88 142 3.0 9.0 0.00 0.00 0.00 74 1013.5
20260902005556 88 138 3.0 9.0 0.00 0.00 0.00 73 1013.6
20260902005057 88 203 4.0 7.0 0.00 0.00 0.00 74 1013.4
20260902004557 88 169 4.0 10.0 0.00 0.00 0.00 74 1013.3
20260902004056 88 131 5.0 10.0 0.00 0.00 0.00 73 1013.3
20260902003555 88 165 3.0 9.0 0.00 0.00 0.00 73 1013.2
20260902003056 89 126 4.0 9.0 0.00 0.00 0.00 73 1013.2
20260902002555 89 140 5.0 7.0 0.00 0.00 0.00 73 1013.1
20260902002055 89 131 2.0 9.0 0.00 0.00 0.00 72 1013.0
20260902001555 89 163 3.0 9.0 0.00 0.00 0.00 72 1013.0
20260902001054 89 162 3.0 8.0 0.00 0.00 0.00 72 1012.9
20260902000554 89 135 3.0 9.0 0.00 0.00 0.00 72 1012.9
20260902000054 89 150 3.0 8.0 0.00 0.00 0.00 71 1013.0
20260901235554 89 157 4.0 10.0 0.00 0.00 0.00 71 1012.8
20260901235055 90 131 8.0 10.0 0.00 0.00 0.00 69 1012.8
20260901234603 90 142 4.0 10.0 0.00 0.00 0.00 69 1012.8
20260901234055 90 123 4.0 10.0 0.00 0.00 0.00 69 1012.8
20260901233554 90 185 5.0 9.0 0.00 0.00 0.00 69 1012.8
20260901233053 90 170 7.0 11.0 0.00 0.00 0.00 69 1012.8
20260901232553 90 111 6.0 11.0 0.00 0.00 0.00 69 1012.5
20260901232057 90 128 5.0 11.0 0.00 0.00 0.00 67 1012.6
20260901231558 90 150 4.0 10.0 0.00 0.00 0.00 67 1012.6
20260901231052 90 153 4.0 10.0 0.00 0.00 0.00 66 1012.6
20260901230553 90 156 4.0 9.0 0.00 0.00 0.00 66 1012.6
20260901230105 90 124 5.0 10.0 0.00 0.00 0.00 66 1012.6
20260901225553 90 140 4.0 9.0 0.00 0.00 0.00 67 1012.4
20260901225052 90 139 5.0 9.0 0.00 0.00 0.00 69 1012.4
20260901224554 90 127 4.0 9.0 0.00 0.00 0.00 66 1012.4
20260901224054 90 171 4.0 9.0 0.00 0.00 0.00 67 1012.3
20260901223554 90 124 4.0 9.0 0.00 0.00 0.00 69 1012.4
20260901223050 91 125 6.0 9.0 0.00 0.00 0.00 68 1012.4
20260901222549 90 77 4.0 10.0 0.00 0.00 0.00 68 1012.4
20260901222050 90 148 5.0 11.0 0.00 0.00 0.00 70 1012.3
20260901221604 90 171 8.0 12.0 0.00 0.00 0.00 69 1012.5
20260901221048 90 163 5.0 12.0 0.00 0.00 0.00 71 1012.5
20260901220550 90 186 7.0 12.0 0.00 0.00 0.00 70 1012.5
20260901220047 90 179 4.0 11.0 0.00 0.00 0.00 71 1012.6
20260901215547 90 166 7.0 10.0 0.00 0.00 0.00 70 1012.6
20260901215046 90 163 5.0 11.0 0.00 0.00 0.00 71 1012.7
20260901214545 90 168 6.0 11.0 0.00 0.00 0.00 70 1012.8
20260901214044 91 126 4.0 11.0 0.00 0.00 0.00 71 1012.9
20260901213545 90 103 4.0 9.0 0.00 0.00 0.00 70 1012.9
20260901213044 90 80 3.0 11.0 0.00 0.00 0.00 71 1012.9
20260901212541 90 136 5.0 11.0 0.00 0.00 0.00 72 1013.1
20260901212041 90 144 4.0 9.0 0.00 0.00 0.00 73 1013.1
20260901211540 89 88 5.0 11.0 0.00 0.00 0.00 73 1013.1
20260901211039 89 148 5.0 12.0 0.00 0.00 0.00 73 1013.1
20260901210540 90 109 4.0 9.0 0.00 0.00 0.00 72 1013.1
20260901210038 91 141 4.0 9.0 0.00 0.00 0.00 71 1013.1
20260901205537 91 116 4.0 10.0 0.00 0.00 0.00 70 1013.3
20260901205036 91 61 5.0 10.0 0.00 0.00 0.00 70 1013.3
20260901204538 90 130 4.0 9.0 0.00 0.00 0.00 71 1013.3
20260901204033 90 85 4.0 11.0 0.00 0.00 0.00 72 1013.4
20260901203533 90 155 5.0 11.0 0.00 0.00 0.00 72 1013.6
20260901203033 90 164 5.0 11.0 0.00 0.00 0.00 72 1013.5
20260901202533 90 178 5.0 11.0 0.00 0.00 0.00 73 1013.7
20260901202034 90 112 5.0 11.0 0.00 0.00 0.00 72 1013.7
20260901201532 90 66 5.0 11.0 0.00 0.00 0.00 73 1013.8
20260901201032 90 136 6.0 11.0 0.00 0.00 0.00 73 1014.0
20260901200531 90 109 4.0 11.0 0.00 0.00 0.00 73 1013.9
20260901200032 90 135 6.0 13.0 0.00 0.00 0.00 72 1013.9
20260901195532 90 115 4.0 13.0 0.00 0.00 0.00 72 1014.0
20260901195031 90 89 5.0 9.0 0.00 0.00 0.00 72 1013.9
20260901194531 90 144 3.0 10.0 0.00 0.00 0.00 72 1014.1